Location: São Paulo
(23.5507°S, 46.6334°W)
Time: 19:07:08
(UTC-03:00)

X-37B - Pass Details

Date: 07 August 2021
Orbit: 381 x 393 km, 45.0° (Epoch: 29 August)

Event Time Altitude Azimuth Distance (km) Brightness Sun altitude
Rises 18:55:35 0° 215° (SW) 2,305 4.8 -16.1°
Reaches altitude 10° 18:57:57 10° 199° (SSW) 1,442 3.6 -16.6°
Enters shadow 18:59:45 20° 169° (S) 973 2.4 -17.0°
